UNSW-ECO

Last updated on Dec. 4, 2018, 12:02 a.m. UTC

1 42723U 98067MC  18337.56119802  .13780986  12541-4  29133-3 0  9992
2 42723  51.6259 187.6942 0006339 249.0867 110.9484 16.46458799 87542

Satellite is not in orbit.